CDT,Max TemperatureF,Mean TemperatureF,Min TemperatureF,Max Dew PointF,MeanDew PointF,Min DewpointF,Max Humidity, Mean Humidity, Min Humidity, Max Sea Level PressureIn, Mean Sea Level PressureIn, Min Sea Level PressureIn, Max VisibilityMiles, Mean VisibilityMiles, Min VisibilityMiles, Max Wind SpeedMPH, Mean Wind SpeedMPH, Max Gust SpeedMPH,PrecipitationIn, CloudCover, Events, WindDirDegrees
2011-10-1,60,54,48,50,44,39,82,70,59,30.19,30.08,29.97,10,10,10,28,22,32,0.00,0,,168
2011-10-2,69,60,51,50,46,43,82,63,43,30.08,30.04,30.01,10,10,10,15,9,16,0.00,0,,133
2011-10-3,71,64,57,55,51,48,82,71,50,30.08,30.04,30.02,10,10,10,14,9,,0.00,0,,153
2011-10-4,73,65,57,55,50,48,88,61,41,30.06,30.03,29.97,10,10,10,9,3,,0.00,0,,129
2011-10-5,75,68,60,55,49,45,73,54,44,29.97,29.94,29.89,10,10,10,14,8,20,0.00,0,,126
2011-10-6,69,64,60,54,52,48,77,66,46,29.96,29.93,29.87,10,10,10,20,16,,0.00,0,,154
2011-10-7,66,64,62,55,53,48,73,64,52,29.85,29.68,29.49,10,10,10,28,17,30,0.00,3,,151
2011-10-8,64,60,55,50,48,45,77,68,52,30.13,29.86,29.57,10,10,10,20,12,29,0.00,6,,228
2011-10-9,57,52,48,46,42,37,87,67,48,30.30,30.22,30.13,10,10,10,10,6,,0.00,2,Rain,37
2011-10-10,64,60,55,55,52,45,94,78,63,30.10,29.89,29.74,10,10,5,22,10,26,0.05,4,Rain,153
2011-10-11,66,60,55,54,51,45,94,80,46,29.74,29.71,29.69,10,10,7,16,11,18,0.00,2,,172
2011-10-12,59,57,55,55,54,52,100,90,82,29.69,29.66,29.63,10,10,7,16,5,,0.21,6,Rain,163
2011-10-13,53,50,48,52,47,43,100,90,76,29.62,29.60,29.58,10,10,7,22,13,29,0.08,8,Rain,307
2011-10-14,48,45,42,41,37,32,87,74,57,29.71,29.65,29.60,10,10,10,30,21,44,0.00,6,,306
2011-10-15,48,42,37,34,32,30,76,66,54,29.72,29.69,29.66,10,10,10,24,15,31,0.00,5,,280
2011-10-16,46,42,37,37,32,28,87,65,50,29.65,29.62,29.59,10,10,10,38,20,48,0.00,6,,288
2011-10-17,44,42,39,37,34,30,93,76,57,29.87,29.73,29.60,10,10,7,30,21,34,0.00,6,Rain,302
2011-10-18,39,36,33,36,30,27,93,77,61,30.13,30.02,29.90,10,10,7,22,17,28,0.03,7,Rain,324
2011-10-19,42,38,33,34,32,28,93,79,66,30.24,30.19,30.14,10,10,7,16,9,20,0.00,8,Rain,8
2011-10-20,44,42,39,39,34,32,81,75,70,30.15,30.05,29.92,10,10,10,8,3,,0.00,5,,123
2011-10-21,51,46,42,39,37,32,81,70,54,29.99,29.89,29.85,10,10,10,18,10,18,0.00,1,,243
2011-10-22,51,44,37,43,37,34,93,79,54,30.07,29.99,29.78,10,10,10,21,7,,0.00,1,,202
2011-10-23,51,46,42,43,38,34,93,74,50,29.84,29.73,29.67,10,10,10,21,10,26,0.00,1,,285
2011-10-24,42,38,33,36,32,30,87,80,70,30.03,29.97,29.88,10,10,10,15,9,21,0.00,4,,311
2011-10-25,48,44,39,39,37,34,93,80,66,30.05,30.03,30.02,10,10,10,10,2,,0.00,2,Rain,182
2011-10-26,44,40,37,37,36,34,93,83,71,30.08,30.05,29.99,10,10,10,10,4,17,0.27,6,Rain,250
2011-10-27,42,36,30,36,33,28,100,89,66,30.01,29.98,29.95,10,8,0,10,6,,0.00,4,Fog,258
2011-10-28,42,38,35,37,35,32,100,84,70,29.96,29.91,29.87,10,10,7,20,12,23,0.07,6,Rain,259
2011-10-29,44,38,32,39,33,28,100,84,53,29.96,29.92,29.85,10,8,0,13,6,20,0.00,2,Fog,140
2011-10-30,44,42,39,39,33,30,87,69,57,29.89,29.82,29.77,10,10,10,17,9,,0.00,7,,159
2011-10-31,46,42,37,37,35,34,93,79,66,29.92,29.84,29.70,10,10,10,24,8,28,0.00,6,,194